Regional Weather Roundup
Issued by NWS

Home | Current Version | Previous Version | Text Only | Print | Product List | Glossary Off
Versions: 1 2 3 4 5 6 7 8 9 10 11 12 13 14 15 16 17 18 19 20 21 22 23 24 25 26 27 28 29 30 31 32 33 34 35 36 37 38 39 40 41 42 43 44 45 46 47 48 49 50

000
ASUS45 KTFX 181419
RWRMT
MONTANA HOURLY WEATHER ROUNDUP
NATIONAL WEATHER SERVICE GREAT FALLS MT
719 AM MST THU DEC 18 2014

NOTE: "FAIR" INDICATES FEW OR NO CLOUDS BELOW 12000 FEET WITH NO
SIGNIFICANT WEATHER AND/OR OBSTRUCTIONS TO VISIBILITY.

* THESE STATIONS ARE NOT UNDER NWS QUALITY CONTROL. THEY DO NOT
   REPORT WEATHER SUCH AS PRECIPITATION OR FOG.

MTZ001>007-043-181500-
WEST OF THE DIVIDE
CITY           SKY/WX    TMP DP  RH WIND       PRES   REMARKS
KALISPELL      CLOUDY    28  28 100 CALM      29.96S
MISSOULA       CLOUDY    28  27  96 NW3       30.01R
BUTTE          MOCLDY     9   5  84 CALM      30.00R
MULLAN PASS    LGT SNOW  28  27  96 VRB3      29.90R VSB 1
* ANACONDA     PTCLDY    27  18  69 S11G20     N/A   WCI  17
* ESSEX        N/A       28  27  96 SW2        N/A
* EUREKA APT   CLOUDY    28  27  96 CALM      29.98S
* HAMILTON APT PTCLDY    28  25  89 SW1       29.99R
* LINCOLN      N/A       19  17  92 E1         N/A
* LOOKOUT PASS N/A       31  30  96 S2         N/A
* POLSON       N/A       29  28  96 N/A        N/A
* RONAN APT    CLOUDY    30  28  92 N/A        N/A
* SEELEY LAKE  N/A       22  20  92 E1         N/A
* THOMP F APT  MOCLDY    17  12  81 N4         N/A
* YAAK HILL    N/A       32  30  92 N/A        N/A
$$

MTZ008-052>055-181500-
SOUTHWEST MONTANA
CITY           SKY/WX    TMP DP  RH WIND       PRES   REMARKS
BOZEMAN        CLOUDY    18  12  77 SE7       30.02S WCI   9
DILLON         PTCLDY    19  12  74 S10       30.02R WCI   8
* W YELLOWSTON PTCLDY    12   9  88 N/A        N/A
* THREE FORKS  PTCLDY    16  -9  32 N/A        N/A
* BOULDER HILL N/A       19  13  77 SW10       N/A   WCI   8
* MONIDA PASS  N/A       18  18 100 E4         N/A
* RAYNOLDS PAS N/A       10  -9  41 SE3        N/A
* WHITEHALL    N/A       17  11  77 W6G15      N/A   WCI   8
* WISE RIVER   N/A        7   3  83 S1         N/A
$$

MTZ009>010-012-014-046-048-049-054-181500-
EAST SLOPES AND CENTRAL MONTANA
CITY           SKY/WX    TMP DP  RH WIND       PRES   REMARKS
CUT BANK       CLOUDY    30  27  89 W15       29.85R WCI  19
GREAT FALLS    MOCLDY    34  25  70 S15       29.90R WCI  24
HELENA         MOCLDY    23  21  92 W3        30.00R
MALMSTROM AFB  CLOUDY    34  27  76 SW13      29.92R WCI  25
* CONRAD       PTCLDY    30  30 100 CALM       N/A
* DEARBORN     N/A       33  23  67 SW12G17    N/A   WCI  24
* EAST GLACIER N/A       33  28  82 W14        N/A   WCI  23
* MONARCH      N/A       31  19  61 SW8        N/A   WCI  24
* PENDROY      N/A       32  25  75 NW9        N/A   WCI  24
* ROGERS PASS  N/A       29  21  72 N3G14      N/A
* SWEET GRASS  N/A       29  29 100 W14        N/A   WCI  18
* WHITE SULPH  N/A       24  17  75 W3G11      N/A
$$

MTZ011-013-016-021-035-040-045-047-050-051-181500-
NORTH CENTRAL MONTANA
CITY           SKY/WX    TMP DP  RH WIND       PRES   REMARKS
HAVRE          FOG       16  14  92 SW6       29.92R VSB 3/4  WCI   7
LEWISTOWN      CLOUDY    25  18  75 E7        29.91R WCI  17
* N BAR RANCH  MOCLDY    25  19  78 SW7       29.91R WCI  17
* CHINOOK      PTCLDY    21  21 100 CALM      29.94R VSB 3/4
* CHESTER      N/A       18  15  88 N/A        N/A
* DENTON       N/A       28  20  72 S9         N/A   WCI  19
* GEYSER       N/A       37  23  57 SW18G23    N/A   WCI  27
* JUDITH GAP   N/A       27  21  78 SE1        N/A
* LOMA         N/A       19  18  96 NE1        N/A
$$

MTZ017>020-022>027-061-062-181500-
NORTHEAST MONTANA
CITY           SKY/WX    TMP DP  RH WIND       PRES   REMARKS
GLASGOW        CLOUDY    25  21  85 E5        29.94F WCI  19
GLENDIVE       CLOUDY    25  21  85 SW6       29.97R WCI  18
JORDAN         CLEAR     18  16  92 CALM      29.93R
SIDNEY         CLOUDY    23  19  85 CALM      30.00S
WOLF POINT     CLOUDY    25  21  85 NE3       29.98R
* BEAVER HILL  N/A       24  22  92 SW5        N/A   WCI  18
* CIRCLE       N/A       25  23  92 N/A        N/A
* LINDSAY DVD  N/A       23  22  96 N/A        N/A
* NAVAJO       N/A       20  18  92 SW4        N/A
* PLENTYWOOD A CLEAR     19  19 100 S5        29.96F WCI  12
* POPLAR APT   CLEAR     23  21  92 CALM      29.98R VSB 1/2
* SACO         N/A       24  23  96 E6         N/A   WCI  17
$$

MTZ028>042-056>058-181500-
SOUTHCENTRAL AND SOUTHEAST MONTANA
CITY           SKY/WX    TMP DP  RH WIND       PRES   REMARKS
BAKER          CLOUDY    27  25  92 W3        29.94S
BILLINGS       PTCLDY    21  18  88 SW20      29.96R WCI   6
LIVINGSTON     PTCLDY    34  18  52 SW26G36   29.96R WCI  21
MILES CITY     CLOUDY    25  21  85 SE3       29.96R
* FORSYTH APT  CLEAR     23  23 100 W3        29.96R
* LAUREL APT   PTCLDY    19  10  68 SW7        N/A   WCI  10
* ROUNDUP APT  PTCLDY    25  16  69 SW5        N/A   WCI  19
* ALZADA       N/A       18  16  92 N/A        N/A
* HYSHAM       N/A       26  17  69 W8         N/A   WCI  18
* LAME DEER    N/A       26  20  78 N/A        N/A
* REED POINT   N/A       15  14  96 N/A        N/A
* ROSCOE HILL  N/A       33   4  29 S14G22     N/A   WCI  23
$$

REGIONAL REPORTS...DAKOTAS
CITY           SKY/WX    TMP DP  RH WIND       PRES   REMARKS
WILLISTON      CLOUDY    21  18  88 SE5       30.00S WCI  14
DICKINSON      CLOUDY    21  18  88 S7        29.95S WCI  12
BEACH          FOG       25  25 100 S5        29.95S WCI  19
CROSBY         CLOUDY    19  19 100 S7        30.01S WCI  10
TIOGA          CLOUDY    18  18 100 S12       30.01S WCI   5
WATFORD CITY   CLOUDY    19  19 100 SE6       29.98S WCI  11
BISMARCK       CLOUDY    18  16  92 SE8       30.09F WCI   8
GRAND FORKS    MOCLDY     7   3  83 SE6       30.24F WCI  -4
FARGO          MOCLDY    10   7  88 SE8       30.25S WCI  -2
BUFFALO SD     PTCLDY    25  19  78 S7        29.89S WCI  17
RAPID CITY     FOG       21  19  92 S6        30.00R VSB M1/4 WCI  13
$$

REGIONAL REPORTS...WYOMING/IDAHO/WASHINGTON
CITY           SKY/WX    TMP DP  RH WIND       PRES   REMARKS
GILLETTE       PTCLDY    27  18  69 SW8       29.96R WCI  19
SHERIDAN       PTCLDY    12   9  88 CALM      29.96R
CODY           PTCLDY    19  12  74 E3        29.98R
YELLOWSTONE LA MOCLDY    18  16  92 CALM      30.04R
SALMON         CLOUDY    21  14  74 CALM      30.11R
MULLAN PASS    LGT SNOW  28  27  96 VRB3      29.90S VSB 1
SAND POINT     FOG       32  32 100 CALM      29.99R
SPOKANE        FOG       34  34 100 S5        29.97R VSB 1    WCI  29
$$

REGIONAL REPORTS...ALBERTA
CITY           SKY/WX    TMP DP  RH WIND       PRES   REMARKS
CALGARY        MOCLDY    19  16  88 N3        29.80R
LETHBRIDGE     MOCLDY    27  23  85 S8        29.83S WCI  19
MEDICINE HAT   FAIR      18  16  92 S2        29.87R
EDMONTON       FOG        9   5  84 CALM      29.83S VSB 2
WATERTON GATE  N/A       36  27  70 SW12       N/A   WCI  28
CARDSTON       N/A       30  27  89 SW2        N/A
MILK RIVER     N/A       23  21  92 W2         N/A
$$

REGIONAL REPORTS...SASKATCHEWAN
CITY           SKY/WX    TMP DP  RH WIND       PRES   REMARKS
SWIFT CURRENT  FOG       21  19  92 SW13      29.85R VSB 3/4  WCI   8
MOOSE JAW      N/A       25  25 100 S6        29.93F WCI  18
REGINA         LGT SNOW  19  18  96 SE9       29.96F WCI   8
VAL MARIE      N/A       23  23 100 SW2        N/A
ASSINIBOIA     N/A       25  23  92 S7         N/A   WCI  17
CORONACH       N/A       21  19  92 S5         N/A   WCI  14

$$




USA.gov is the U.S. government's official web portal to all federal, state and local government web resources and services.